This is the latest recevied weather packets stored in our database for station/object KC1HBM. If no packets are shown the sender has not sent any weather packets the latest 1 day(s).
| Time | Temp. | Humidity | Pressure | Rain* | Wind** | Luminosity | Snow |
|---|---|---|---|---|---|---|---|
| 1778028375 | 16.11° C | 73% | 1005.8 hPa | 0 mm | 0 m/s | 0 W/m² | - |
| 1778028072 | 16.11° C | 73% | 1005.6 hPa | 0 mm | 0.45 m/s, 319° | 0 W/m² | - |
| 1778027769 | 16.11° C | 73% | 1005.6 hPa | 0 mm | 0 m/s | 0 W/m² | - |
| 1778027465 | 16.11° C | 73% | 1005.6 hPa | 0 mm | 0.45 m/s, 309° | 0 W/m² | - |
| 1778027161 | 16.67° C | 73% | 1005.5 hPa | 0 mm | 0.45 m/s, 308° | 0 W/m² | - |
| 1778026857 | 16.67° C | 71% | 1005.5 hPa | 0 mm | 0.45 m/s, 312° | 0 W/m² | - |
| 1778026553 | 16.67° C | 71% | 1005.4 hPa | 0 mm | 0.45 m/s, 319° | 0 W/m² | - |
| 1778026251 | 17.22° C | 70% | 1005.2 hPa | 0 mm | 0 m/s | 0 W/m² | - |
| 1778025948 | 17.22° C | 70% | 1005 hPa | 0 mm | 0.45 m/s, 343° | 0 W/m² | - |
| 1778025645 | 17.22° C | 71% | 1004.7 hPa | 0 mm | 0.89 m/s, 338° | 0 W/m² | - |
| 1778025343 | 16.67° C | 72% | 1004.4 hPa | 0 mm | 0.89 m/s, 306° | 0 W/m² | - |
| 1778025040 | 16.67° C | 73% | 1004.3 hPa | 0 mm | 0 m/s | 0 W/m² | - |
| 1778024737 | 16.67° C | 73% | 1004.3 hPa | 0 mm | 0 m/s | 0 W/m² | - |
| 1778024433 | 17.22° C | 72% | 1004.4 hPa | 0 mm | 0 m/s | 1 W/m² | - |
| 1778024131 | 17.22° C | 72% | 1004.3 hPa | 0 mm | 0 m/s | 2 W/m² | - |
| 1778023828 | 17.78° C | 70% | 1004.2 hPa | 0 mm | 0 m/s | 2 W/m² | - |
| 1778023526 | 16.67° C | 71% | 1004.3 hPa | 0 mm | 0 m/s | 4 W/m² | - |
| 1778023223 | 16.11° C | 73% | 1004.6 hPa | 0 mm | 0 m/s | 4 W/m² | - |
| 1778022920 | 16.11° C | 74% | 1004.8 hPa | 0 mm | 0 m/s | 2 W/m² | - |
| 1778022619 | 16.11° C | 73% | 1004.7 hPa | 0 mm | 0.45 m/s, 331° | 2 W/m² | - |
| 1778022316 | 15.56° C | 75% | 1004.7 hPa | 0 mm | 0.89 m/s, 287° | 0 W/m² | - |
| 1778022012 | 15° C | 76% | 1003.9 hPa | 0 mm | 0.89 m/s, 291° | 2 W/m² | - |
| 1778021709 | 15° C | 75% | 1003.1 hPa | 0 mm | 1.34 m/s, 313° | 9 W/m² | - |
| 1778021405 | 15.56° C | 75% | 1003.1 hPa | 0 mm | 2.68 m/s, 71° | 22 W/m² | - |
| 1778021102 | 15° C | 75% | 1002.9 hPa | 0 mm | 2.68 m/s, 30° | 22 W/m² | - |
* Rain latest hour (hover to see other rain measurements)
** Current wind speed in m/s (hover to see current wind gust speed)